Location: Creola (historical)
(38.1334°N, 100.5024°W)
Time: 06:34:39
(UTC+00:00)

Cosmos 1953 - Pass Details

Date: 18 October 2021
Orbit: 537 x 557 km, 82.5° (Epoch: 30 November)

Event Time Altitude Azimuth Distance (km) Brightness Sun altitude
Rises 12:02:33 0° 354° (N) 2,740 5.8 -10.8°
Reaches altitude 10° 12:04:44 10° 355° (N) 1,838 4.9 -10.4°
Maximum altitude 12:08:47 79° 83° (E) 565 2.5 -9.6°
Drops below altitude 10° 12:12:46 10° 170° (S) 1,811 5.2 -8.8°
Sets 12:14:55 0° 171° (S) 2,696 6.0 -8.4°
